Location: Blackie
(50.6050°N, 113.6230°W)
Time: 12:11:42
(UTC+00:00)

N. Korean satellite - Pass Details

Date: 03 December 2021
Orbit: 447 x 490 km, 97.3° (Epoch: 27 January)

Event Time Altitude Azimuth Distance (km) Brightness Sun altitude
Rises 13:06:57 0° 11° (N) 2,476 10.2 -19.7°
Reaches altitude 10° 13:09:00 10° 10° (N) 1,594 9.2 -19.3°
Maximum altitude 13:12:24 75° 285° (WNW) 471 6.2 -18.8°
Drops below altitude 10° 13:15:46 10° 200° (SSW) 1,572 9.1 -18.3°
Sets 13:17:46 0° 199° (SSW) 2,439 10.1 -18.0°
